AIC2BK VTBS-VECC

Flight info

Callsign AIC2BK
Flight time 2h 13m
Altitude 38000
Route TARED1G TARED P646 DOPID DOPID2G
Aircraft A20N/M-SDE2E3FGHIRWXY/LB1

Departure

Time 2026-05-07 16:51
Airport Suvarnabhumi Airport (VTBS)

Arrival

Time 2026-05-07 19:05
Airport Netaji Subhash Chandra Bose International Airport (VECC)
Time Latitude Longitude Altitude Speed Heading
2026-05-07 16:31 13.69281 100.75525 13 ft 0 kts 284°
2026-05-07 16:45 13.69278 100.75537 40 ft 2 kts 284°
2026-05-07 16:45 13.69274 100.75553 13 ft 2 kts 284°
2026-05-07 16:45 13.69270 100.75570 13 ft 2 kts 283°
2026-05-07 16:46 13.69266 100.75586 13 ft 2 kts 283°
2026-05-07 16:46 13.69262 100.75603 15 ft 2 kts 283°
2026-05-07 16:46 13.69259 100.75619 14 ft 2 kts 278°
2026-05-07 16:46 13.69261 100.75635 13 ft 2 kts 208°
2026-05-07 16:47 13.69277 100.75641 16 ft 2 kts 194°
2026-05-07 16:47 13.69289 100.75644 14 ft 1 kts 195°
2026-05-07 16:47 13.69290 100.75644 14 ft 0 kts 195°
2026-05-07 16:49 13.69282 100.75642 13 ft 4 kts 195°
2026-05-07 16:49 13.69231 100.75628 13 ft 12 kts 194°
2026-05-07 16:49 13.69152 100.75677 13 ft 19 kts 107°
2026-05-07 16:50 13.69113 100.75830 13 ft 26 kts 104°
2026-05-07 16:50 13.69068 100.76008 13 ft 21 kts 107°
2026-05-07 16:50 13.68984 100.76051 13 ft 10 kts 193°
2026-05-07 16:50 13.68898 100.76030 14 ft 22 kts 193°
2026-05-07 16:51 13.68529 100.75933 15 ft 88 kts 194°
2026-05-07 16:51 13.67756 100.75732 11 ft 139 kts 194°
2026-05-07 16:51 13.66705 100.75463 262 ft 154 kts 194°
2026-05-07 16:51 13.65690 100.75216 825 ft 147 kts 194°
2026-05-07 16:52 13.64658 100.74942 929 ft 161 kts 194°
2026-05-07 16:52 13.63529 100.74646 1434 ft 169 kts 187°
2026-05-07 16:52 13.62358 100.74775 2065 ft 177 kts 166°
2026-05-07 16:52 13.61097 100.75104 2494 ft 197 kts 165°
2026-05-07 16:53 13.59691 100.75484 2819 ft 223 kts 164°
2026-05-07 16:53 13.58144 100.75926 3256 ft 244 kts 163°
2026-05-07 16:53 13.56442 100.76419 3749 ft 264 kts 163°
2026-05-07 16:53 13.54650 100.76937 4525 ft 270 kts 163°
2026-05-07 16:54 13.52831 100.77460 5390 ft 273 kts 163°
2026-05-07 16:54 13.50989 100.77987 6256 ft 276 kts 163°
2026-05-07 16:54 13.49108 100.78446 7033 ft 281 kts 172°
2026-05-07 16:54 13.47142 100.78438 7727 ft 288 kts 187°
2026-05-07 16:55 13.45175 100.77920 7923 ft 293 kts 203°
2026-05-07 16:55 13.43539 100.76712 7927 ft 293 kts 229°
2026-05-07 16:55 13.42569 100.74887 7931 ft 294 kts 255°
2026-05-07 16:55 13.42457 100.72830 7934 ft 295 kts 280°
2026-05-07 16:56 13.42998 100.70801 7935 ft 295 kts 290°
2026-05-07 16:56 13.43695 100.68824 7938 ft 295 kts 290°
2026-05-07 16:56 13.44956 100.64816 8148 ft 294 kts 287°
2026-05-07 16:57 13.45502 100.62783 8688 ft 297 kts 285°
2026-05-07 16:57 13.46050 100.60735 9526 ft 297 kts 291°
2026-05-07 16:57 13.47078 100.58925 10340 ft 293 kts 314°
2026-05-07 16:57 13.48541 100.57526 11147 ft 291 kts 317°
2026-05-07 16:58 13.49938 100.56034 11974 ft 289 kts 314°
2026-05-07 16:58 13.51269 100.54505 12820 ft 285 kts 313°
2026-05-07 16:58 13.52577 100.53001 13692 ft 280 kts 313°
2026-05-07 16:58 13.53873 100.51537 14467 ft 273 kts 314°
2026-05-07 16:59 13.55148 100.50119 15222 ft 268 kts 315°
2026-05-07 16:59 13.56420 100.48718 15809 ft 269 kts 315°
2026-05-07 16:59 13.57725 100.47290 16151 ft 282 kts 315°
2026-05-07 16:59 13.59116 100.45772 16320 ft 301 kts 315°
2026-05-07 17:00 13.60598 100.44154 16479 ft 320 kts 315°
2026-05-07 17:00 13.62145 100.42462 16641 ft 338 kts 315°
2026-05-07 17:00 13.63795 100.40656 16798 ft 355 kts 314°
2026-05-07 17:00 13.65527 100.38759 16959 ft 372 kts 314°
2026-05-07 17:01 13.67330 100.36783 17142 ft 386 kts 314°
2026-05-07 17:01 13.69174 100.34761 17620 ft 390 kts 314°
2026-05-07 17:01 13.71033 100.32720 18175 ft 392 kts 314°
2026-05-07 17:01 13.72910 100.30661 18634 ft 395 kts 314°
2026-05-07 17:02 13.74797 100.28591 19098 ft 398 kts 314°
2026-05-07 17:02 13.76009 100.27262 19390 ft 400 kts 314°
2026-05-07 17:02 13.77794 100.25303 19809 ft 402 kts 314°
2026-05-07 17:02 13.79715 100.23195 20261 ft 405 kts 314°
2026-05-07 17:03 13.81653 100.21068 20696 ft 408 kts 314°
2026-05-07 17:03 13.83598 100.18933 21133 ft 411 kts 314°
2026-05-07 17:03 13.85563 100.16776 21570 ft 414 kts 314°
2026-05-07 17:03 13.87539 100.14605 21993 ft 417 kts 314°
2026-05-07 17:04 13.89526 100.12421 22410 ft 420 kts 314°
2026-05-07 17:04 13.91529 100.10220 22818 ft 423 kts 314°
2026-05-07 17:04 13.93548 100.08001 23216 ft 426 kts 314°
2026-05-07 17:04 13.95575 100.05771 23598 ft 428 kts 314°
2026-05-07 17:05 13.97590 100.03555 23955 ft 430 kts 314°
2026-05-07 17:05 13.99637 100.01304 24319 ft 432 kts 314°
2026-05-07 17:05 14.01692 99.99041 24667 ft 434 kts 314°
2026-05-07 17:05 14.03759 99.96766 25011 ft 435 kts 314°
2026-05-07 17:06 14.05832 99.94483 25330 ft 437 kts 314°
2026-05-07 17:06 14.07914 99.92190 25672 ft 439 kts 314°
2026-05-07 17:06 14.10005 99.89888 25994 ft 441 kts 314°
2026-05-07 17:06 14.12107 99.87570 26308 ft 443 kts 314°
2026-05-07 17:07 14.14185 99.85280 26624 ft 445 kts 314°
2026-05-07 17:07 14.16304 99.82943 26927 ft 447 kts 314°
2026-05-07 17:07 14.18428 99.80600 27247 ft 449 kts 314°
2026-05-07 17:07 14.20566 99.78243 27530 ft 450 kts 314°
2026-05-07 17:08 14.22708 99.75879 27818 ft 452 kts 314°
2026-05-07 17:08 14.24858 99.73505 28086 ft 454 kts 314°
2026-05-07 17:08 14.27019 99.71118 28379 ft 456 kts 314°
2026-05-07 17:08 14.29190 99.68720 28650 ft 458 kts 314°
2026-05-07 17:09 14.31368 99.66314 28924 ft 460 kts 314°
2026-05-07 17:09 14.33524 99.63930 29156 ft 462 kts 314°
2026-05-07 17:09 14.35719 99.61504 29432 ft 463 kts 314°
2026-05-07 17:09 14.37924 99.59065 29688 ft 465 kts 314°
2026-05-07 17:10 14.40130 99.56625 29960 ft 467 kts 314°
2026-05-07 17:10 14.42314 99.54127 30180 ft 469 kts 310°
2026-05-07 17:10 14.44254 99.51413 30419 ft 471 kts 304°
2026-05-07 17:10 14.45906 99.48484 30661 ft 473 kts 298°
2026-05-07 17:11 14.47413 99.45461 30898 ft 475 kts 298°
2026-05-07 17:11 14.48938 99.42437 31172 ft 475 kts 298°
2026-05-07 17:11 14.50443 99.39461 31494 ft 474 kts 298°
2026-05-07 17:11 14.51966 99.36449 31832 ft 472 kts 298°
2026-05-07 17:12 14.53482 99.33447 32162 ft 471 kts 298°
2026-05-07 17:12 14.54994 99.30449 32491 ft 470 kts 298°
2026-05-07 17:12 14.56500 99.27460 32804 ft 469 kts 298°
2026-05-07 17:12 14.58004 99.24475 33107 ft 468 kts 298°
2026-05-07 17:13 14.59503 99.21498 33400 ft 467 kts 298°
2026-05-07 17:13 14.60999 99.18525 33689 ft 466 kts 298°
2026-05-07 17:13 14.62492 99.15557 33940 ft 466 kts 298°
2026-05-07 17:13 14.63964 99.12632 34158 ft 465 kts 298°
2026-05-07 17:14 14.65451 99.09672 34380 ft 464 kts 298°
2026-05-07 17:14 14.66936 99.06718 34608 ft 463 kts 298°
2026-05-07 17:14 14.68419 99.03765 34819 ft 463 kts 298°
2026-05-07 17:14 14.69901 99.00814 35023 ft 462 kts 298°
2026-05-07 17:15 14.71381 98.97865 35214 ft 462 kts 298°
2026-05-07 17:15 14.72860 98.94917 35425 ft 462 kts 298°
2026-05-07 17:15 14.74316 98.92014 35640 ft 462 kts 298°
2026-05-07 17:15 14.75792 98.89070 35830 ft 461 kts 298°
2026-05-07 17:16 14.78753 98.83160 36064 ft 465 kts 298°
2026-05-07 17:16 14.80239 98.80192 36258 ft 464 kts 298°
2026-05-07 17:16 14.81721 98.77232 36456 ft 464 kts 298°
2026-05-07 17:17 14.83202 98.74272 36649 ft 464 kts 298°
2026-05-07 17:17 14.84683 98.71313 36826 ft 464 kts 298°
2026-05-07 17:17 14.86144 98.68390 37016 ft 463 kts 298°
2026-05-07 17:17 14.87621 98.65435 37180 ft 463 kts 298°
2026-05-07 17:18 14.89101 98.62472 37356 ft 463 kts 298°
2026-05-07 17:18 14.90576 98.59518 37527 ft 463 kts 298°
2026-05-07 17:18 14.92053 98.56560 37706 ft 463 kts 298°
2026-05-07 17:18 14.93527 98.53606 37862 ft 462 kts 297°
2026-05-07 17:19 14.96474 98.47696 37925 ft 462 kts 297°
2026-05-07 17:19 14.99394 98.41836 37921 ft 462 kts 297°
2026-05-07 17:20 15.02333 98.35933 37915 ft 462 kts 297°
2026-05-07 17:20 15.05274 98.30023 37913 ft 464 kts 297°
2026-05-07 17:21 15.08247 98.24042 37912 ft 471 kts 297°
2026-05-07 17:21 15.11233 98.18009 37909 ft 477 kts 297°
2026-05-07 17:22 15.14225 98.11838 37904 ft 482 kts 297°
2026-05-07 17:22 15.17239 98.05617 37900 ft 485 kts 297°
2026-05-07 17:23 15.20269 97.99370 37891 ft 485 kts 297°
2026-05-07 17:23 15.23292 97.93137 37887 ft 484 kts 297°
2026-05-07 17:24 15.26292 97.86945 37884 ft 484 kts 297°
2026-05-07 17:24 15.29312 97.80707 37884 ft 484 kts 297°
2026-05-07 17:25 15.32329 97.74469 37878 ft 484 kts 297°
2026-05-07 17:25 15.35344 97.68231 37878 ft 484 kts 297°
2026-05-07 17:26 15.38338 97.62030 37868 ft 484 kts 297°
2026-05-07 17:26 15.41350 97.55787 37869 ft 485 kts 297°
2026-05-07 17:27 15.44363 97.49537 37876 ft 484 kts 297°
2026-05-07 17:27 15.47476 97.43350 37877 ft 484 kts 298°
2026-05-07 17:28 15.50647 97.37197 37873 ft 484 kts 298°
2026-05-07 17:28 15.53777 97.31077 37868 ft 483 kts 298°
2026-05-07 17:29 15.56914 97.24918 37867 ft 483 kts 298°
2026-05-07 17:29 15.60045 97.18760 37869 ft 482 kts 298°
2026-05-07 17:30 15.63173 97.12605 37863 ft 482 kts 298°
2026-05-07 17:30 15.66270 97.06505 37866 ft 480 kts 298°
2026-05-07 17:31 15.69380 97.00374 37870 ft 480 kts 298°
2026-05-07 17:31 15.72479 96.94261 37865 ft 478 kts 298°
2026-05-07 17:32 15.75572 96.88153 37863 ft 477 kts 298°
2026-05-07 17:32 15.78136 96.83086 37863 ft 477 kts 298°
2026-05-07 17:33 15.81713 96.76012 37869 ft 475 kts 298°
2026-05-07 17:33 15.84786 96.69928 37868 ft 476 kts 297°
2026-05-07 17:34 15.87857 96.63844 37864 ft 475 kts 297°
2026-05-07 17:34 15.90902 96.57805 37859 ft 475 kts 297°
2026-05-07 17:35 15.93964 96.51729 37861 ft 475 kts 297°
2026-05-07 17:35 15.97023 96.45651 37865 ft 474 kts 297°
2026-05-07 17:36 16.00079 96.39575 37863 ft 474 kts 297°
2026-05-07 17:36 16.03128 96.33508 37868 ft 473 kts 297°
2026-05-07 17:37 16.05724 96.28337 37866 ft 474 kts 297°
2026-05-07 17:37 16.09267 96.21276 37870 ft 474 kts 297°
2026-05-07 17:38 16.11815 96.16192 37861 ft 473 kts 297°
2026-05-07 17:38 16.14837 96.10158 37864 ft 473 kts 297°
2026-05-07 17:39 16.16044 96.07747 37864 ft 473 kts 297°
2026-05-07 17:39 16.18567 96.02703 37861 ft 473 kts 297°
2026-05-07 17:40 16.21605 95.96627 37862 ft 473 kts 297°
2026-05-07 17:40 16.24639 95.90551 37867 ft 472 kts 297°
2026-05-07 17:41 16.27672 95.84472 37867 ft 473 kts 297°
2026-05-07 17:41 16.30683 95.78432 37865 ft 473 kts 297°
2026-05-07 17:42 16.33714 95.72348 37868 ft 474 kts 297°
2026-05-07 17:42 16.36749 95.66249 37869 ft 474 kts 297°
2026-05-07 17:43 16.39791 95.60131 37867 ft 474 kts 297°
2026-05-07 17:43 16.42821 95.54033 37872 ft 475 kts 296°
2026-05-07 17:44 16.45860 95.47911 37869 ft 475 kts 296°
2026-05-07 17:44 16.48890 95.41800 37869 ft 475 kts 296°
2026-05-07 17:45 16.51903 95.35718 37869 ft 475 kts 296°
2026-05-07 17:45 16.54931 95.29601 37872 ft 475 kts 296°
2026-05-07 17:46 16.57959 95.23479 37871 ft 474 kts 296°
2026-05-07 17:46 16.60979 95.17366 37872 ft 474 kts 296°
2026-05-07 17:47 16.64004 95.11238 37870 ft 475 kts 296°
2026-05-07 17:47 16.67023 95.05117 37871 ft 474 kts 296°
2026-05-07 17:48 16.69030 95.01046 37869 ft 475 kts 296°
2026-05-07 17:48 16.72030 94.94954 37873 ft 475 kts 296°
2026-05-07 17:49 16.75043 94.88830 37873 ft 474 kts 296°
2026-05-07 17:49 16.78057 94.82701 37872 ft 474 kts 296°
2026-05-07 17:50 16.81242 94.76661 37871 ft 475 kts 303°
2026-05-07 17:50 16.85339 94.71218 37871 ft 476 kts 308°
2026-05-07 17:51 16.89482 94.65883 37870 ft 476 kts 308°
2026-05-07 17:51 16.93653 94.60505 37875 ft 476 kts 308°
2026-05-07 17:52 16.97818 94.55133 37875 ft 475 kts 308°
2026-05-07 17:52 17.01979 94.49762 37874 ft 475 kts 307°
2026-05-07 17:53 17.06134 94.44395 37875 ft 475 kts 307°
2026-05-07 17:53 17.10292 94.39019 37875 ft 475 kts 307°
2026-05-07 17:54 17.14418 94.33680 37872 ft 474 kts 307°
2026-05-07 17:54 17.18563 94.28312 37874 ft 474 kts 307°
2026-05-07 17:55 17.22703 94.22946 37874 ft 474 kts 307°
2026-05-07 17:55 17.26845 94.17574 37874 ft 474 kts 307°
2026-05-07 17:56 17.30978 94.12210 37870 ft 473 kts 307°
2026-05-07 17:56 17.35110 94.06842 37870 ft 473 kts 307°
2026-05-07 17:57 17.38540 94.02383 37872 ft 473 kts 307°
2026-05-07 17:57 17.43333 93.96147 37868 ft 472 kts 307°
2026-05-07 17:58 17.47453 93.90782 37875 ft 472 kts 307°
2026-05-07 17:58 17.51567 93.85421 37876 ft 471 kts 306°
2026-05-07 17:59 17.55669 93.80070 37877 ft 471 kts 306°
2026-05-07 17:59 17.59763 93.74727 37878 ft 470 kts 306°
2026-05-07 18:00 17.63853 93.69384 37877 ft 470 kts 306°
2026-05-07 18:00 17.67945 93.64033 37876 ft 469 kts 306°
2026-05-07 18:01 17.72023 93.58698 37877 ft 468 kts 306°
2026-05-07 18:01 17.76103 93.53354 37878 ft 468 kts 306°
2026-05-07 18:02 17.82185 93.45381 37880 ft 467 kts 306°
2026-05-07 18:03 17.86248 93.40050 37879 ft 467 kts 306°
2026-05-07 18:03 17.90307 93.34720 37881 ft 466 kts 306°
2026-05-07 18:04 17.94331 93.29431 37881 ft 466 kts 306°
2026-05-07 18:04 17.98378 93.24108 37879 ft 466 kts 305°
2026-05-07 18:05 18.02419 93.18788 37881 ft 465 kts 305°
2026-05-07 18:05 18.06450 93.13477 37879 ft 465 kts 305°
2026-05-07 18:06 18.10483 93.08159 37879 ft 465 kts 305°
2026-05-07 18:06 18.14513 93.02840 37877 ft 465 kts 305°
2026-05-07 18:07 18.18512 92.97559 37882 ft 464 kts 305°
2026-05-07 18:07 18.22534 92.92242 37881 ft 464 kts 305°
2026-05-07 18:08 18.26563 92.86911 37880 ft 464 kts 305°
2026-05-07 18:08 18.30583 92.81590 37882 ft 464 kts 305°
2026-05-07 18:09 18.34598 92.76269 37881 ft 464 kts 305°
2026-05-07 18:09 18.38607 92.70952 37880 ft 464 kts 304°
2026-05-07 18:10 18.42592 92.65662 37884 ft 464 kts 304°
2026-05-07 18:10 18.46598 92.60340 37880 ft 463 kts 304°
2026-05-07 18:11 18.50607 92.55010 37882 ft 463 kts 304°
2026-05-07 18:11 18.54613 92.49679 37884 ft 463 kts 304°
2026-05-07 18:12 18.58612 92.44353 37883 ft 463 kts 304°
2026-05-07 18:12 18.62575 92.39070 37885 ft 463 kts 304°
2026-05-07 18:13 18.66582 92.33724 37886 ft 463 kts 304°
2026-05-07 18:13 18.70578 92.28389 37884 ft 463 kts 304°
2026-05-07 18:14 18.74578 92.23044 37885 ft 463 kts 304°
2026-05-07 18:14 18.78546 92.17736 37887 ft 463 kts 304°
2026-05-07 18:15 18.82545 92.12385 37887 ft 463 kts 304°
2026-05-07 18:15 18.86532 92.07044 37888 ft 464 kts 304°
2026-05-07 18:16 18.90532 92.01682 37887 ft 464 kts 304°
2026-05-07 18:16 18.94506 91.96315 37887 ft 463 kts 303°
2026-05-07 18:17 18.98440 91.90914 37889 ft 463 kts 303°
2026-05-07 18:17 19.02350 91.85552 37888 ft 464 kts 303°
2026-05-07 18:18 19.06314 91.80123 37889 ft 464 kts 303°
2026-05-07 18:18 19.10252 91.74726 37889 ft 464 kts 303°
2026-05-07 18:19 19.14166 91.69356 37887 ft 464 kts 303°
2026-05-07 18:19 19.18100 91.63952 37886 ft 463 kts 303°
2026-05-07 18:20 19.22039 91.58539 37888 ft 463 kts 303°
2026-05-07 18:20 19.25966 91.53135 37893 ft 463 kts 303°
2026-05-07 18:21 19.29891 91.47731 37895 ft 463 kts 303°
2026-05-07 18:21 19.33815 91.42323 37895 ft 463 kts 303°
2026-05-07 18:22 19.37710 91.36950 37891 ft 462 kts 303°
2026-05-07 18:22 19.41631 91.31537 37895 ft 462 kts 303°
2026-05-07 18:23 19.45548 91.26123 37896 ft 462 kts 303°
2026-05-07 18:23 19.49460 91.20713 37884 ft 462 kts 303°
2026-05-07 18:24 19.53361 91.15312 37890 ft 461 kts 303°
2026-05-07 18:24 19.57236 91.09943 37889 ft 461 kts 303°
2026-05-07 18:25 19.61136 91.04533 37892 ft 461 kts 303°
2026-05-07 18:25 19.65030 90.99128 37897 ft 460 kts 303°
2026-05-07 18:26 19.68267 90.94630 37893 ft 460 kts 303°
2026-05-07 18:26 19.72153 90.89227 37895 ft 460 kts 303°
2026-05-07 18:27 19.76033 90.83828 37893 ft 460 kts 303°
2026-05-07 18:27 19.79886 90.78460 37895 ft 459 kts 303°
2026-05-07 18:28 19.83760 90.73060 37895 ft 459 kts 303°
2026-05-07 18:28 19.87626 90.67664 37897 ft 458 kts 303°
2026-05-07 18:29 19.91488 90.62271 37895 ft 458 kts 303°
2026-05-07 18:29 19.95346 90.56877 37898 ft 458 kts 303°
2026-05-07 18:30 19.99173 90.51523 37895 ft 457 kts 303°
2026-05-07 18:30 20.03024 90.46130 37898 ft 457 kts 303°
2026-05-07 18:31 20.06862 90.40750 37896 ft 457 kts 303°
2026-05-07 18:31 20.10706 90.35355 37899 ft 456 kts 303°
2026-05-07 18:32 20.14544 90.29967 37896 ft 456 kts 302°
2026-05-07 18:32 20.18377 90.24579 37896 ft 456 kts 302°
2026-05-07 18:33 20.22182 90.19225 37898 ft 456 kts 302°
2026-05-07 18:33 20.26005 90.13841 37897 ft 456 kts 302°
2026-05-07 18:34 20.29825 90.08458 37896 ft 455 kts 302°
2026-05-07 18:34 20.33648 90.03065 37897 ft 455 kts 302°
2026-05-07 18:35 20.37458 89.97683 37895 ft 455 kts 302°
2026-05-07 18:35 20.41277 89.92286 37895 ft 455 kts 302°
2026-05-07 18:36 20.45068 89.86923 37893 ft 455 kts 302°
2026-05-07 18:36 20.48878 89.81528 37893 ft 455 kts 302°
2026-05-07 18:37 20.52684 89.76133 37893 ft 455 kts 302°
2026-05-07 18:37 20.56491 89.70733 37895 ft 455 kts 302°
2026-05-07 18:38 20.60292 89.65334 37894 ft 455 kts 302°
2026-05-07 18:38 20.64089 89.59937 37891 ft 455 kts 302°
2026-05-07 18:39 20.67868 89.54562 37894 ft 454 kts 302°
2026-05-07 18:39 20.71664 89.49155 37885 ft 454 kts 302°
2026-05-07 18:40 20.75456 89.43751 37896 ft 454 kts 302°
2026-05-07 18:40 20.79242 89.38350 37893 ft 454 kts 302°
2026-05-07 18:41 20.83003 89.32978 37890 ft 454 kts 302°
2026-05-07 18:41 20.86785 89.27573 37894 ft 453 kts 302°
2026-05-07 18:42 20.90891 89.22416 37890 ft 461 kts 313°
2026-05-07 18:42 20.95130 89.19200 37882 ft 467 kts 326°
2026-05-07 18:43 20.95713 89.18872 37879 ft 465 kts 328°
2026-05-07 18:43 21.01609 89.16285 37795 ft 449 kts 332°
2026-05-07 18:44 21.07481 89.13777 37725 ft 458 kts 332°
2026-05-07 18:44 21.13387 89.11258 37670 ft 456 kts 332°
2026-05-07 18:45 21.19250 89.08760 37616 ft 456 kts 332°
2026-05-07 18:45 21.25160 89.06240 37564 ft 456 kts 332°
2026-05-07 18:46 21.31054 89.03725 37516 ft 456 kts 332°
2026-05-07 18:46 21.36959 89.01202 37466 ft 456 kts 332°
2026-05-07 18:47 21.42826 88.98695 37426 ft 456 kts 332°
2026-05-07 18:47 21.48729 88.96169 37390 ft 456 kts 332°
2026-05-07 18:48 21.54620 88.93646 37347 ft 456 kts 332°
2026-05-07 18:48 21.60499 88.91115 36966 ft 452 kts 329°
2026-05-07 18:48 21.63303 88.89590 36197 ft 453 kts 326°
2026-05-07 18:49 21.65998 88.87833 35218 ft 453 kts 315°
2026-05-07 18:49 21.68283 88.85536 34299 ft 447 kts 303°
2026-05-07 18:49 21.70029 88.82795 33418 ft 440 kts 291°
2026-05-07 18:49 21.71143 88.79814 32525 ft 433 kts 279°
2026-05-07 18:50 21.71648 88.76651 31618 ft 429 kts 271°
2026-05-07 18:50 21.71942 88.73441 30716 ft 432 kts 271°
2026-05-07 18:50 21.72236 88.70208 29813 ft 435 kts 271°
2026-05-07 18:50 21.72531 88.66960 28778 ft 438 kts 271°
2026-05-07 18:51 21.72828 88.63693 27769 ft 439 kts 271°
2026-05-07 18:51 21.73126 88.60416 26733 ft 442 kts 272°
2026-05-07 18:51 21.73426 88.57102 25680 ft 444 kts 272°
2026-05-07 18:51 21.73727 88.53791 24621 ft 447 kts 272°
2026-05-07 18:52 21.74029 88.50450 23625 ft 449 kts 273°
2026-05-07 18:52 21.74331 88.47129 22700 ft 445 kts 274°
2026-05-07 18:52 21.74938 88.43871 21767 ft 445 kts 285°
2026-05-07 18:52 21.76183 88.40820 20886 ft 446 kts 297°
2026-05-07 18:53 21.78006 88.38131 20056 ft 447 kts 309°
2026-05-07 18:53 21.80300 88.35935 19267 ft 448 kts 321°
2026-05-07 18:53 21.83005 88.34283 18448 ft 445 kts 333°
2026-05-07 18:53 21.85951 88.33274 17305 ft 443 kts 346°
2026-05-07 18:54 21.88996 88.32991 16242 ft 438 kts 359°
2026-05-07 18:54 21.92015 88.33395 15210 ft 432 kts
2026-05-07 18:54 21.94926 88.34043 14232 ft 423 kts
2026-05-07 18:54 21.97781 88.34668 13225 ft 414 kts
2026-05-07 18:55 22.00579 88.35214 12173 ft 405 kts
2026-05-07 18:55 22.03299 88.35690 11165 ft 396 kts
2026-05-07 18:55 22.06033 88.36135 10169 ft 388 kts
2026-05-07 18:55 22.08651 88.36546 9147 ft 382 kts
2026-05-07 18:56 22.11270 88.36952 8006 ft 379 kts
2026-05-07 18:56 22.13875 88.37355 6902 ft 376 kts
2026-05-07 18:56 22.16459 88.37756 5842 ft 373 kts
2026-05-07 18:56 22.19015 88.38153 4756 ft 371 kts
2026-05-07 18:57 22.21563 88.38550 3699 ft 368 kts
2026-05-07 18:57 22.23230 88.38811 3067 ft 365 kts
2026-05-07 18:57 22.24082 88.38944 2808 ft 361 kts
2026-05-07 18:58 22.26491 88.39319 2339 ft 344 kts
2026-05-07 18:58 22.28737 88.39671 2103 ft 321 kts
2026-05-07 18:58 22.30879 88.40008 2010 ft 296 kts
2026-05-07 18:58 22.32833 88.40316 1999 ft 271 kts
2026-05-07 18:59 22.34671 88.40657 2009 ft 271 kts 12°
2026-05-07 18:59 22.36514 88.41077 2007 ft 269 kts 10°
2026-05-07 18:59 22.38366 88.41394 2005 ft 269 kts
2026-05-07 18:59 22.40233 88.41644 2012 ft 271 kts
2026-05-07 19:00 22.42110 88.41878 2011 ft 270 kts
2026-05-07 19:00 22.43933 88.42103 2010 ft 256 kts
2026-05-07 19:00 22.45634 88.42314 2008 ft 242 kts
2026-05-07 19:00 22.47280 88.42517 2010 ft 228 kts
2026-05-07 19:01 22.48791 88.42704 2009 ft 214 kts
2026-05-07 19:01 22.50215 88.42880 2011 ft 198 kts
2026-05-07 19:01 22.51575 88.43048 2024 ft 199 kts
2026-05-07 19:01 22.52948 88.43217 2017 ft 197 kts
2026-05-07 19:02 22.54305 88.43385 2023 ft 196 kts
2026-05-07 19:02 22.55634 88.43549 1758 ft 193 kts
2026-05-07 19:02 22.56924 88.43708 1496 ft 178 kts
2026-05-07 19:02 22.58090 88.43853 1262 ft 161 kts
2026-05-07 19:03 22.59197 88.43989 1049 ft 158 kts
2026-05-07 19:03 22.60273 88.44122 846 ft 151 kts
2026-05-07 19:03 22.61269 88.44245 655 ft 138 kts
2026-05-07 19:03 22.62216 88.44362 476 ft 138 kts
2026-05-07 19:04 22.62566 88.44405 409 ft 136 kts
2026-05-07 19:04 22.63085 88.44471 296 ft 132 kts
2026-05-07 19:04 22.64010 88.44604 119 ft 135 kts
2026-05-07 19:04 22.64932 88.44720 27 ft 122 kts
2026-05-07 19:05 22.65572 88.44795 30 ft 65 kts
2026-05-07 19:05 22.65967 88.44841 28 ft 37 kts
2026-05-07 19:05 22.66116 88.44852 28 ft 0 kts 339°
2026-05-07 19:05 22.66125 88.44843 28 ft 3 kts 309°
2026-05-07 19:06 22.66133 88.44809 28 ft 6 kts 278°
2026-05-07 19:06 22.66107 88.44676 28 ft 13 kts 217°
2026-05-07 19:06 22.66023 88.44623 29 ft 15 kts 211°
2026-05-07 19:07 22.65929 88.44560 30 ft 17 kts 212°
2026-05-07 19:07 22.65815 88.44502 29 ft 20 kts 186°
2026-05-07 19:07 22.65672 88.44486 28 ft 22 kts 186°
2026-05-07 19:07 22.65515 88.44468 29 ft 23 kts 187°
2026-05-07 19:08 22.65346 88.44449 28 ft 26 kts 185°
2026-05-07 19:08 22.65174 88.44427 28 ft 20 kts 186°
2026-05-07 19:08 22.65112 88.44388 28 ft 11 kts 245°
2026-05-07 19:08 22.65073 88.44303 28 ft 14 kts 244°
2026-05-07 19:09 22.65006 88.44249 28 ft 13 kts 186°
2026-05-07 19:09 22.64976 88.44242 28 ft 0 kts 204°
2026-05-07 19:09 22.64974 88.44242 28 ft 0 kts 193°
2026-05-07 19:09 22.64947 88.44241 28 ft 9 kts 186°
2026-05-07 19:10 22.64854 88.44227 28 ft 18 kts 181°
2026-05-07 19:10 22.64712 88.44211 28 ft 22 kts 186°
2026-05-07 19:10 22.64550 88.44190 28 ft 25 kts 186°
2026-05-07 19:10 22.64374 88.44168 28 ft 26 kts 187°
2026-05-07 19:11 22.64345 88.44160 28 ft 1 kts 224°
2026-05-07 19:11 22.64338 88.44144 28 ft 3 kts 260°
2026-05-07 19:11 22.64339 88.44105 28 ft 7 kts 269°
2026-05-07 19:11 22.64342 88.44074 28 ft 0 kts 277°
2026-05-07 19:12 22.64343 88.44066 28 ft 0 kts 277°